Skip Page Navigation
NASA JPL Caltech
NASA Logo - Jet Propulsion Laboratory + View the NASA Portal
+ Center for Near-Earth Object Studies
JPL Home Earth Solar System Stars & Galaxies Technology
JPL Solar System Dynamics
BODIES ORBITS EPHEMERIDES TOOLS PHYSICAL DATA DISCOVERY FAQ SITE MAP
IMPORTANT: The SSD Announcement email list is now available. Major changes are coming in the near future, including possible hostname and/or URL changes. To be notified of such changes, subscribe to this email list.

Please visit this page for more details.


JPL Small-Body Database Browser
Search: [ help ]  
376685 (2013 QM51)
Classification: Main-belt Asteroid          SPK-ID: 2376685
Ephemeris | Orbit Diagram | Orbital Elements | Mission Design | Physical Parameters | Discovery Circumstances | Close-Approach Data ]

[ show orbit diagram ]
Orbital Elements at Epoch 2459000.5 (2020-May-31.0) TDB
Reference: JPL 14 (heliocentric ecliptic J2000)
 Element Value Uncertainty (1-sigma)   Units 
e .06670751172322952 7.0167e-08  
a 3.103060306928672 3.7591e-08 au
q 2.89606287512634 2.1525e-07 au
i 2.388616139799209 7.0147e-06 deg
node 196.9106714566111 0.00014002 deg
peri 128.7692531585904 0.0001477 deg
M 96.67059960618781 4.7477e-05 deg
tp 2458464.363144914603
(2018-Dec-11.86314491)
0.00026327 TDB
period 1996.566366785921
5.47
3.628e-05
9.933e-08
d
yr
n .1803095584443452 3.2764e-09 deg/d
Q 3.310057738731004 4.0098e-08 au
  Orbit Determination Parameters
   # obs. used (total)      168  
   data-arc span      9420 days (25.79 yr)  
   first obs. used      1994-01-11  
   last obs. used      2019-10-27  
   planetary ephem.      DE431  
   SB-pert. ephem.      SB431-N16  
   condition code      0  
   norm. resid. RMS      .57189  
   source      ORB  
   producer      Otto Matic  
   solution date      2019-Nov-08 12:29:27  

Additional Information
 Earth MOID = 1.88495 au 
 Jupiter MOID = 1.92092 au 
 T_jup = 3.217 
[ show covariance matrix ]

Ephemeris | Orbit Diagram | Orbital Elements | Mission Design | Physical Parameters | Discovery Circumstances | Close-Approach Data ]

Physical Parameter Table
Parameter Symbol Value Units Sigma Reference Notes
absolute magnitude H 16.2   n/a MPO455716  

376685 (2013 QM51)          Discovered 2008-Sep-06 by Mt. Lemmon Survey at Mount Lemmon
Reference: Last Updated: 2013-10-21

[ show close-approach data ]
Alternate Designations
 2013 QM51 = 2000 EZ50 = 2008 TQ102 
Ephemeris | Orbit Diagram | Orbital Elements | Mission Design | Physical Parameters | Discovery Circumstances | Close-Approach Data ]
ABOUT SSD CREDITS/AWARDS PRIVACY/COPYRIGHT GLOSSARY LINKS
FirstGov 2020-Feb-22 11:44 UT
(server date/time)  
NASA Home Page
Site Manager:   Ryan S. Park
Webmaster  Alan B. Chamberlin